Location: Etiwanda
(34.1261°N, 117.5237°W)
Time: 00:07:11
(UTC+00:00)

Cosmos 1300 - Pass Details

Date: 03 August 2024
Orbit: 455 x 456 km, 82.5° (Epoch: 10 September)

Event Time Altitude Azimuth Distance (km) Brightness Sun altitude
Exits shadow 12:28:34 - 236° (SW) 1,675 4.6 -7.4°
Reaches altitude 10° 12:28:44 10° 238° (WSW) 1,624 4.5 -7.4°
Maximum altitude 12:31:14 18° 283° (WNW) 1,218 4.1 -6.9°
Drops below altitude 10° 12:33:49 10° 329° (NNW) 1,656 5.2 -6.4°
Sets 12:36:21 0° 348° (NNW) 2,517 6.4 -5.9°
